This is the latest recevied weather packets stored in our database for station/object 9W2CEW-1. If no packets are shown the sender has not sent any weather packets the latest 10 day(s).
| Time | Temp. | Humidity | Pressure | Rain* | Wind** | Luminosity | Snow |
|---|---|---|---|---|---|---|---|
| 1777805346 | 32.22° C | 68% | 1001.7 hPa | - | - | - | - |
| 1777804565 | 31.67° C | 72% | 1001.7 hPa | - | - | - | - |
| 1777804446 | 31.67° C | 72% | 1001.7 hPa | - | - | - | - |
| 1777803546 | 30.56° C | 74% | 1001.8 hPa | - | - | - | - |
| 1777802646 | 30° C | 77% | 1001.9 hPa | - | - | - | - |
| 1777801746 | 30° C | 79% | 1001.5 hPa | - | - | - | - |
| 1777801002 | 30° C | 87% | 1001.7 hPa | - | - | - | - |
| 1777800846 | 30° C | 87% | 1001.7 hPa | - | - | - | - |
| 1777799946 | 30° C | 86% | 1001.7 hPa | - | - | - | - |
| 1777799124 | 29.44° C | 86% | 1001.5 hPa | - | - | - | - |
| 1777799046 | 29.44° C | 86% | 1001.5 hPa | - | - | - | - |
| 1777798146 | 28.89° C | 90% | 1001.4 hPa | - | - | - | - |
| 1777797248 | 26.67° C | 90% | 1001.7 hPa | - | - | - | - |
| 1777796346 | 26.11° C | 95% | 1001.7 hPa | - | - | - | - |
| 1777795509 | 25.56° C | 100% | 1001.9 hPa | - | - | - | - |
| 1777795447 | 25.56° C | 100% | 1001.9 hPa | - | - | - | - |
| 1777794547 | 25.56° C | 100% | 1002.4 hPa | - | - | - | - |
| 1777793702 | 26.11° C | 96% | 1002.7 hPa | - | - | - | - |
| 1777793647 | 26.11° C | 96% | 1002.7 hPa | - | - | - | - |
| 1777792747 | 27.78° C | 86% | 1001.7 hPa | - | - | - | - |
| 1777791881 | 32.22° C | 59% | 1001.8 hPa | - | - | - | - |
| 1777791847 | 32.22° C | 59% | 1001.8 hPa | - | - | - | - |
| 1777791047 | 36.11° C | 49% | 1001.5 hPa | - | - | - | - |
| 1777790947 | 36.11° C | 49% | 1001.5 hPa | - | - | - | - |
| 1777790170 | 37.22° C | 49% | 1001.3 hPa | - | - | - | - |
* Rain since midnight (hover to see other rain measurements)
** Current wind speed in m/s (hover to see current wind gust speed)